www.pogodaiklimat.ru

Погода и климат >> Архив погоды >> Мальдивы >> Ган


ПОГОДА в Гане

  • Прогноз погоды в Гане
  • Монитор погоды в Гане

АРХИВ ПОГОДЫ в Гане

Время (UTC), дата Ветер
(напр.,м/с)
 
Видим.   Явления Облачность Т
(С)
Тd
(С)
f
(%)
Тe
(С)
Тes
(С)
Комфортность P
(гПа)
Po
(гПа)
Тmin
(С)
Tmax
(С)
R
(мм)
R24
(мм)
S
(см)
21 16.01 10 км 9/3 540 м
[Cu med, cong Ac trans Ci sp]
+27.0 +25.0 89 1009.7 1009.5
00 17.01 С 1 10 км {ливн. осадки} 9/5 500 м
[Cb cap Ac cuf Ci sp]
+25.7 +24.7 94 +36 +36 очень
душно
1009.9 1009.7 0.6
03 17.01 СЗ 1 9000 м {ливн. осадки} 9/5 500 м
[Cb cap Ac As]
+26.0 +25.1 95 +37 +38 очень
душно
1012.1 1011.9 +24.6
06 17.01 З 2 9000 м {ливн. осадки} 9/4 500 м
[Cb cap Ac cuf Cs]
+27.6 +25.3 87 +40 +46 очень
душно
1012.6 1012.4 0.7
09 17.01 З 3 9000 м 9/5 500 м
[Cb cap Ac cuf]
+27.8 +24.6 83 +39 +43 очень
душно
1010.0 1009.8
12 17.01 З 2 9000 м 9/4 500 м
[Cu med, cong Ac cuf]
+27.4 +24.2 83 +38 +39 очень
душно
1009.5 1009.3 +29.6 0.7
15 17.01 З 2 10 км 9/4 500 м
[Cu med, cong Ac cuf]
+26.7 +24.2 86 +37 +37 очень
душно
1011.6 1011.4
18 17.01 С 2 10 км 9/5 500 м
[Cb cap Ac cuf]
+25.9 +24.5 92 +36 +36 очень
душно
1012.5 1012.3
21 17.01 С 2 10 км 9/5 500 м
[Cb cap Ac cuf]
+25.9 +24.5 92 +36 +36 очень
душно
1012.5 1012.3
00 18.01 ЮЗ 1 8000 м в посл. час ливневой дождь 9/5 500 м
[Cb cap Ac As]
+25.0 +24.4 96 +35 +35 очень
душно
1010.1 1009.9 0.6
03 18.01 штиль 0 8000 м слаб. дождь 9/4 500 м
[Cu med, cong As op]
+24.6 +24.3 98 +34 +35 очень
душно
1012.4 1012.2 +23.0
06 18.01 З 1 10 км {ливн. осадки, дождь} 10/3 500 м
[Cu med, cong Ac cuf Cs]
+27.6 +24.7 84 +39 +47 очень
душно
1013.0 1012.8 5
09 18.01 С 3 6000 м слаб. дождь 10/4 480 м
[Cb cap As op]
+24.5 +24.1 98 +34 +35 очень
душно
1011.3 1011.1
12 18.01 СВ 1 8000 м слаб. дождь 10/5 480 м
[Cb cap As op]
+24.8 +23.9 95 +34 +34 очень
душно
1010.7 1010.5 +28.4 19
15 18.01 СЗ 1 8000 м слаб. дождь 10/4 480 м
[Cb cap As op]
+24.9 +23.4 91 +33 +33 очень
душно
1012.9 1012.7
18 18.01 СЗ 1 9000 м в посл. час дождь 10/3 500 м
[Cu med, cong As op]
+25.6 +24.2 92 +35 +35 очень
душно
1013.4 1013.2 1
21 18.01 СЗ 2 9000 м 10/3 500 м
[Cu med, cong As op]
+26.5 +22.5 79 +35 +35 очень
душно
1011.1 1010.9
00 19.01 СЗ 2 9000 м 9/4 500 м
[Cu med, cong Ac As]
+27.0 +24.4 86 +38 +38 очень
душно
1010.2 1010.0 1
06 19.01 С 2 9000 м слаб. дождь 10/5 500 м
[Cb cap As op]
+26.3 +24.9 92 +38 +40 очень
душно
1013.0 1012.8 10
09 19.01 С 2 1000 м ливневой дождь 10/6 480 м
[Cb cap As op]
+23.7 +23.7 100 +32 +33 очень
душно
1011.8 1011.6
12 19.01 СЗ 2 6000 м слаб. дождь 10/4 480 м
[Cu med, cong As op]
+24.2 +23.9 98 +33 +33 очень
душно
1011.1 1010.9 +28.0 84
15 19.01 СЗ 2 6000 м слаб. дождь 10/4 480 м
[Cb cap As op]
+24.6 +24.3 98 +34 +34 очень
душно
1013.7 1013.5
21 19.01 7000 м слаб. дождь 10/4 480 м
[Cb cap As op]
+24.8 +24.2 96 1011.7 1011.5
00 20.01 штиль 0 9000 м {дождь} 9/3 500 м
[Cu med, cong Ac As]
+24.9 +24.3 96 +34 +34 очень
душно
1011.8 1011.6 18
06 20.01 СВ 1 5000 м мгла 8/3 540 м
[Cu med, cong Ac trans Ci sp]
+29.2 +25.4 80 +43 +52 опасность
перегрева
1014.1 1013.9
09 20.01 СВ 1 5000 м мгла 8/3 540 м
[Cu med, cong Ac trans Ci sp]
+29.2 +25.4 80 +43 +51 опасность
перегрева
1014.1 1013.9
12 20.01 СВ 2 6000 м мгла 9/5 500 м
[Cb cap Ac cuf Cs]
+28.6 +24.3 78 +40 +41 очень
душно
1011.3 1011.1 +30.3
15 20.01 СВ 2 6000 м мгла 9/3 540 м
[Cu med, cong Ci sp]
+28.1 +23.6 77 +39 +39 очень
душно
1013.2 1013.0
18 20.01 СВ 2 6000 м мгла 9/3 540 м
[Cu med, cong Ac und Ci sp]
+27.6 +22.9 76 +37 +37 очень
душно
1014.0 1013.8
21 20.01 СВ 2 6000 м мгла 9/3 540 м
[Cu med, cong Ac trans Ci sp]
+27.4 +23.2 78 +37 +37 очень
душно
1011.6 1011.4
00 21.01 С 1 6000 м мгла 9/3 540 м
[Cu med, cong Ac und]
+27.4 +23.0 77 +37 +37 очень
душно
1011.9 1011.7
03 21.01 СВ 1 7000 м мгла 9/3 540 м
[Cu hum Ac trans]
+27.0 +23.5 81 +37 +38 очень
душно
1014.2 1014.0 +25.5
06 21.01 С 2 7000 м мгла 9/3 540 м
[Cu hum Ac und]
+29.6 +23.5 70 +40 +46 очень
душно
1014.6 1014.4
09 21.01 С 2 8000 м мгла 9/1 570 м
[Cu hum Ac trans Cs]
+29.9 +23.7 69 +41 +49 опасность
перегрева
1012.1 1011.9
12 21.01 С 2 8000 м 6/3 540 м
[Cu hum Ci sp]
+29.0 +23.5 72 +39 +41 очень
душно
1010.6 1010.4 +30.4
15 21.01 С 1 8000 м 5/3 540 м
[Cu hum Ci sp]
+28.0 +23.0 74 +37 +37 очень
душно
1013.1 1012.9
18 21.01 8000 м 8/3 540 м
[Cu hum Ci sp]
+27.3 +23.2 78 1014.1 1013.9
21 21.01 СВ 1 10 км 9/3 540 м
[Cu med, cong Ac trans Ci sp]
+27.0 +23.5 81 +37 +37 очень
душно
1010.9 1010.7
00 22.01 10 км 9/3 540 м
[Cu med, cong Ac trans Ci sp]
+27.0 +23.2 80 1011.4 1011.2
03 22.01 9000 м 9/4 540 м
[Cu med, cong Ac trans Ci sp]
+28.0 +24.3 80 1013.7 1013.5 +25.8
06 22.01 7000 м слаб. ливневой дождь 10/5 480 м
[Cb cap As op]
+26.4 +25.3 94 1013.7 1013.5 2
09 22.01 СВ 1 10 км {ливн. осадки} 9/3 500 м
[Cu med, cong Ac trans Ci sp]
+29.2 +24.6 76 +41 +49 опасность
перегрева
1010.8 1010.6
12 22.01 С 1 10 км {ливн. осадки} 9/4 500 м
[Cb cap Ac cuf Ci sp]
+29.0 +24.0 74 +40 +41 очень
душно
1010.5 1010.3 +30.0 3
15 22.01 С 1 10 км 9/3 540 м
[Cu med, cong Ac cuf Ci sp]
+28.0 +24.1 79 +39 +39 очень
душно
1012.5 1012.3
18 22.01 С 2 10 км 9/1 570 м
[Cu hum Ci sp]
+27.8 +23.6 78 +38 +38 очень
душно
1013.3 1013.1
21 22.01 С 2 10 км 8/3 540 м
[Cu med, cong Ci sp]
+27.8 +24.5 82 +39 +39 очень
душно
1011.4 1011.2
00 23.01 С 2 10 км 8/3 540 м
[Cu med, cong Ci sp]
+27.4 +23.3 78 +37 +37 очень
душно
1011.0 1010.8
03 23.01 С 2 10 км 9/3 540 м
[Cu med, cong Ac trans Cs]
+28.0 +24.6 82 +40 +42 очень
душно
1012.7 1012.5 +25.2
06 23.01 С 1 10 км 9/3 540 м
[Cu med, cong Ac und Ci sp]
+29.0 +24.0 74 +40 +49 очень
душно
1013.0 1012.8
09 23.01 С 2 10 км 9/5 500 м
[Cb cap Ac und]
+29.0 +24.0 74 +40 +44 очень
душно
1011.5 1011.3
12 23.01 С 2 9000 м 9/3 540 м
[Cu med, cong Ac cuf Ci sp]
+28.4 +23.8 76 +39 +40 очень
душно
1011.6 1011.4 +30.5
15 23.01 С 1 9000 м 9/4 500 м
[Cb cap Ac cuf]
+28.0 +23.3 76 +38 +38 очень
душно
1013.8 1013.6
18 23.01 С 2 9000 м {ливн. осадки} 9/4 500 м
[Cu med, cong Ac und]
+28.0 +22.7 73 +37 +37 очень
душно
1014.2 1014.0 0.0

 

Местоположение метеостанции Ган (Мальдивы): широта -0.68 долгота 73.15 высота над уровнем моря 2 м.

В архиве по умолчанию представлена погода в Гане за последнюю неделю. Архивные данные за месяц целиком и за предыдущие месяцы, начиная с января 2011 года, Вы можете получить, выбрав интересующий диапазон дат из раскрывающегося списка и нажав кнопку "Ввод!".


*Определитесь, кто Вы:
робот инопланетянин человек

Внимание! Время в таблицах - всемирное. Для получения местного времени необходимо прибавить поправку, которая равна 5 ч.

Смотрите также архив погоды в соседних городах и на ближайших метеорологических станциях:

Погода на Каадедхдху (Мальдивы) (130 км)
Погода на Кадхдху (Мальдивы) (287 км)
Погода в Мале (Мальдивы) (544 км)
Погода на Ханимааду (Мальдивы) (824 км)
Погода на Миникое (Лакшадвип, Индия) (999 км)
Погода в Галле (Шри Ланка) (1083 км)
Погода в Каньякумари (Тамилнад, Индия) (1087 км)
Погода в Тривандрам аэропорту (Керала, Индия) (1101 км)
Погода в Тривандраме (Керала, Индия) (1102 км)
Погода в Ратмалане (Шри Ланка) (1120 км)

Пояснения к столбцам:

Ветер - указаны скорость ветра в м/с - средняя за 10 мин, порывы в срок и между сроками (в фигурных скобках) и направление, откуда дует ветер: С - северный, СВ - северо-восточный, В - восточный, ЮВ - юго-восточный, Ю - южный, ЮЗ - юго-западный, З - западный, СЗ - северо-западный.
Видимость - горизонтальная дальность видимости в метрах или километрах. При видимости от 1 до 10 км при отсутствии осадков обычно наблюдается дымка, при ухудшении видимости до 1 км и менее - туман. В сухую погоду видимость может ухудшаться дымом, пылью или мглою.
Явления - указаны атмосферные явления, наблюдавшиеся в срок или в последний час перед сроком; фигурными скобками обозначены явления, наблюдавшиеся между сроками (за 1-3 часа до срока); квадратными скобками обозначены град или гололедные отложения с указанием их диаметра в мм.
Облачность - указаны через наклонную черту общая и нижняя облачность в баллах и высота нижней границы облаков в метрах; квадратными скобками обозначены формы облаков: Ci - перистые, Cs - перисто-слоистые, Cc - перисто-кучевые, Ac - высококучевые, As - высокослоистые, Sc - слоисто-кучевые, Ns - слоисто-дождевые, Cu - кучевые, Cb - кучево-дождевые. Подробнее классификацию облаков см. в Атласе облаков (PDF).
T - Температура воздуха - температура, измеренная на высоте 2 м над землей.
Td - Температура точки росы - температура, при понижении до которой содержащийся в воздухе водяной пар достигнет насыщения.
f - Относительная влажность воздуха - влажноcть воздуха, измеренная на высоте 2 м над землей.
Te - Эффективная температура - температура, которую ощущает одетый по сезону человек в тени. Характеристика душности погоды. При расчете учитывается влияние влажности воздуха и скорости ветра на теплоощущения человека.
Tes - Эффективная температура на солнце - температура, которую ощущает человек, с поправкой на солнечный нагрев. Характеристика знойности погоды. Зависит от высоты солнца над горизонтом, облачности и скорости ветра. Ночью, в пасмурную погоду, а также при ветре 12 м/с и более поправка равна нулю.
P - Атмосферное давление - приведенное к уровню моря атмосферное давление.
Po - Атмосферное давление - измеренное на уровне метеостанции атмосферное давление.
Tmin - Минимальная температура - минимум температуры воздуха на высоте 2 м над землей.
Tmax - Максимальная температура - максимум температуры воздуха на высоте 2 м над землей.
R - Количество осадков - Количество выпавших осадков за период времени, мм. При наведении курсора мыши на число - период времени, за который выпало указанное количество осадков.
R24 - Количество осадков - Количество выпавших осадков за 24 часа, мм.
S - Снежный покров - Высота снежного покрова, см. При наведении курсора мыши на число - состояние снежного покрова и степень покрытия местности в баллах.